Location: Killam
(52.7910°N, 111.8608°W)
Time: 13:36:04
(UTC+00:00)

BlueWalker 3 - Pass Details

Date: 21 January 2026
Orbit: 450 x 461 km, 53.2° (Epoch: 11 February)

Event Time Altitude Azimuth Distance (km) Brightness Sun altitude
Rises 01:45:33 0° 189° (S) 2,445 5.7 -16.8°
Reaches altitude 10° 01:48:57 10° 154° (SSE) 1,578 4.3 -17.3°
Enters shadow 01:49:05 10° 152° (SSE) 1,562 4.2 -17.3°
